Station ACYN4 - 8534720 - Atlantic City, NJ Image indicating link to RSS feed of recent meteorological observations for station ACYN4


Conditions at ACYN4 as of
(8:00 am EDT)
1200 GMT on 04/21/2024:
     

Click on the graph icon in the table below to see a time series plot of the last five days of that observation.

5-day plot - Atmospheric Pressure Atmospheric Pressure (PRES):30.02 in
5-day plot - Pressure Tendency Pressure Tendency (PTDY):+0.03 in ( Rising )
5-day plot - Air Temperature Air Temperature (ATMP): 46.8 °F
5-day plot - Water Temperature Water Temperature (WTMP): 50.5 °F
NOS Water Level Observation Network Water Level
Previous observations
TIME
(EDT)
5-day plot - Wind Direction
WDIR
 
5-day plot - Wind Speed
WSPD
kts
5-day plot - Wind Gust
GST
kts
5-day plot - Wave Height
WVHT
ft
5-day plot - Dominant Wave Period
DPD
sec
5-day plot - Average Wave Period
APD
sec
5-day plot - Mean Wave Direction
MWD
 
5-day plot - Atmospheric Pressure
PRES
in
5-day plot - Pressure Tendency
PTDY
in
5-day plot - Air Temperature
ATMP
°F
5-day plot - Water Temperature
WTMP
°F
5-day plot - Dew Point
DEWP
°F
5-day plot - Salinity
SAL
psu
5-day plot - Visibility
VIS
nmi
5-day plot - Tide (above MLLW)
TIDE
ft
2024-04-21 07:54 am-------30.02- 46.6 50.5----
2024-04-21 07:48 am-------30.02- 46.2 50.5----
2024-04-21 07:42 am-------30.02- 46.2 50.5----
2024-04-21 07:36 am-------30.02- 46.2 50.5----
2024-04-21 07:30 am-------30.02- 46.4 50.5----
2024-04-21 07:24 am-------30.02- 46.0 50.5----
2024-04-21 07:18 am-------30.02- 45.9 50.5----
2024-04-21 07:12 am-------30.02- 45.9 50.5----
2024-04-21 07:06 am-------30.02- 45.7 50.5----
2024-04-21 07:00 am-------30.01- 45.3 50.5----
2024-04-21 06:54 am-------30.01- 45.3 50.5----
2024-04-21 06:48 am-------30.02- 45.1 50.5----
2024-04-21 06:42 am-------30.02- 45.1 50.5----
2024-04-21 06:36 am-------30.01- 45.1 50.5----
2024-04-21 06:30 am-------30.01-- 50.5----
2024-04-21 06:24 am-------30.00-- 50.5----
2024-04-21 06:18 am-------30.00- 45.5 50.5----
2024-04-21 06:12 am-------30.00- 45.3 50.5----
2024-04-21 06:06 am-------30.00- 45.5 50.7----
2024-04-21 06:00 am-------29.99+0.02 45.7 50.7----
2024-04-21 05:54 am-------30.00- 45.7 50.7----
2024-04-21 05:48 am-------30.00- 45.7 50.7----
2024-04-21 05:42 am-------30.00- 45.7 50.7----
2024-04-21 05:36 am-------30.00- 45.9 50.7----
2024-04-21 05:30 am-------30.00- 45.9 50.7----
2024-04-21 05:24 am-------29.99- 45.9 50.9----
2024-04-21 05:18 am-------29.98- 46.0 50.9----
2024-04-21 05:12 am-------29.99- 46.2 51.1----
2024-04-21 05:06 am-------29.99- 46.2 51.1----
2024-04-21 05:00 am-------29.99+0.01 46.4 51.1----
2024-04-21 04:54 am-------29.98- 46.4 51.1----
2024-04-21 04:48 am-------29.99- 46.6 51.1----
2024-04-21 04:42 am-------29.99- 46.6 51.3----
2024-04-21 04:36 am-------29.98- 46.8 51.3----
2024-04-21 04:30 am-------29.99- 46.8 51.4----
2024-04-21 04:24 am-------29.98- 46.8 51.8----
2024-04-21 04:18 am-------29.98-- 52.0----
2024-04-21 04:12 am-------29.98-- 52.2----
2024-04-21 04:06 am-------29.98-- 52.5----
2024-04-21 04:00 am--------- 47.3 52.2----
2024-04-21 03:54 am--------- 47.3 51.1----
2024-04-21 03:48 am-------29.98- 47.3 50.7----
2024-04-21 03:42 am-------29.97- 47.7 50.7----
2024-04-21 03:36 am-------29.97- 47.7 50.4----
2024-04-21 03:30 am-------29.97- 47.8 50.4----
2024-04-21 03:24 am-------29.98- 48.0 50.5----
2024-04-21 03:18 am-------29.97- 48.2 50.5----
2024-04-21 03:12 am-------29.97- 48.2 50.5----
2024-04-21 03:06 am-------29.97- 48.6 50.5----
2024-04-21 03:00 am-------29.97+0.02 48.7 50.5----
2024-04-21 02:54 am-------29.97- 48.7 50.5----
2024-04-21 02:48 am-------29.96- 48.9 50.5----
2024-04-21 02:42 am-------29.97- 49.1 50.5----
2024-04-21 02:36 am-------29.97- 49.3 50.5----
2024-04-21 02:30 am-------29.97- 49.6 50.5----
2024-04-21 02:24 am-------29.97- 49.6 50.5----
2024-04-21 02:18 am-------29.97- 49.6 50.5----
2024-04-21 02:12 am-------29.97- 49.8 50.5----
2024-04-21 02:06 am-------29.98- 50.0 50.5----
2024-04-21 02:00 am-------29.98+0.06 50.2 50.5----
2024-04-21 01:54 am-------29.98- 50.4 50.5----
2024-04-21 01:48 am-------29.98- 50.5 50.5----
2024-04-21 01:42 am-------29.97- 50.7 50.7----
2024-04-21 01:36 am-------29.98- 51.1 50.5----
2024-04-21 01:30 am-------29.98- 51.1 50.7----
2024-04-21 01:24 am-------29.98- 51.3 50.5----
2024-04-21 01:18 am-------29.98- 51.4 50.5----
2024-04-21 01:12 am-------29.98- 51.4 50.7----
2024-04-21 01:06 am-------29.98- 51.8 50.7----
2024-04-21 01:00 am-------29.98+0.10 52.0 50.5----
2024-04-21 12:54 am-------29.98- 52.2 50.5----
2024-04-21 12:48 am-------29.97- 52.3 50.7----
2024-04-21 12:42 am-------29.97- 52.9 50.7----
2024-04-21 12:36 am-------29.96- 53.2 50.7----
2024-04-21 12:30 am-------29.96- 53.6 50.7----
2024-04-21 12:24 am-------29.95- 53.8 50.7----
2024-04-21 12:18 am-------29.95- 54.1 50.7----
2024-04-21 12:12 am-------29.95- 54.7 50.7----
2024-04-21 12:06 am-------29.95- 55.0 50.7----
2024-04-21 12:00 am-------29.95+0.09 55.6 50.7----
2024-04-20 11:54 pm-------29.94- 55.8 50.7----
2024-04-20 11:48 pm-------29.94- 55.9 50.7----
2024-04-20 11:42 pm-------29.94- 56.1 50.7----
2024-04-20 11:36 pm-------29.93- 56.5 50.7----
2024-04-20 11:30 pm-------29.93- 56.7 50.7----
2024-04-20 11:24 pm-------29.93- 56.8 50.7----
2024-04-20 11:18 pm-------29.93- 57.0 50.7----
2024-04-20 11:12 pm-------29.93- 57.4 50.7----
2024-04-20 11:06 pm-------29.92- 57.6 50.7----
2024-04-20 11:00 pm-------29.91+0.09 58.1 50.7----
2024-04-20 10:54 pm-------29.91- 58.6 50.7----
2024-04-20 10:48 pm-------29.91- 59.2 50.7----
2024-04-20 10:42 pm-------29.90- 59.0 50.7----
2024-04-20 10:36 pm-------29.90- 59.0 50.7----
2024-04-20 10:30 pm-------29.90- 59.4 50.7----
2024-04-20 10:24 pm-------29.89- 59.5 50.7----
2024-04-20 10:18 pm-------29.89- 59.2 50.9----
2024-04-20 10:12 pm-------29.89- 54.5 50.7----
2024-04-20 10:06 pm-------29.88- 53.6 50.7----
2024-04-20 10:00 pm-------29.88+0.08 52.9 50.7----
2024-04-20 09:54 pm-------29.88- 52.7 50.7----
2024-04-20 09:48 pm-------29.88- 52.7 50.7----
2024-04-20 09:42 pm-------29.87- 52.7 50.9----
2024-04-20 09:36 pm-------29.87- 52.7 50.9----
2024-04-20 09:30 pm-------29.87- 52.7 50.9----
2024-04-20 09:24 pm-------29.87- 52.7 50.9----
2024-04-20 09:18 pm-------29.87- 52.9 50.7----
2024-04-20 09:12 pm-------29.87- 53.1 50.7----
2024-04-20 09:06 pm-------29.87- 53.1 50.7----
2024-04-20 09:00 pm-------29.86+0.06 53.2 50.7----
2024-04-20 08:54 pm-------29.86- 53.4 50.7----
2024-04-20 08:48 pm-------29.85- 54.0 50.5----
2024-04-20 08:42 pm-------29.85- 54.3 50.5----
2024-04-20 08:36 pm-------29.85- 60.3 50.5----
2024-04-20 08:30 pm-------29.84- 63.7 50.5----
2024-04-20 08:24 pm-------29.84- 63.9 50.5----
2024-04-20 08:18 pm--------- 64.2 50.5----
2024-04-20 08:12 pm--------- 64.4 50.5----
2024-04-20 08:06 pm--------- 64.4 50.5----
2024-04-20 08:00 pm-------29.83+0.02 64.4 50.5----
2024-04-20 07:54 pm-------29.83- 64.4 50.5----
2024-04-20 07:48 pm-------29.82-- 50.7----
2024-04-20 07:42 pm-------29.82-- 50.7----
2024-04-20 07:36 pm-------29.82-- 50.7----
2024-04-20 07:30 pm-------29.81- 65.1 50.7----
2024-04-20 07:24 pm-------29.81- 64.6 50.5----
2024-04-20 07:00 pm-------29.81-0.01 57.2 50.7----
2024-04-20 06:54 pm-------29.80- 59.4 50.5----
2024-04-20 06:48 pm-------29.80- 60.4 50.5----
2024-04-20 06:42 pm-------29.80- 62.8 50.5----
2024-04-20 06:36 pm-------29.80- 64.2 50.7----
2024-04-20 06:30 pm-------29.80- 65.3 50.7----
2024-04-20 06:24 pm-------29.80- 65.5 50.7----
2024-04-20 06:18 pm-------29.80- 65.5 50.7----
2024-04-20 06:12 pm-------29.80- 65.5 50.7----
2024-04-20 06:06 pm-------29.80- 65.7 50.9----
2024-04-20 06:00 pm-------29.80-0.04 65.8 50.7----
2024-04-20 05:54 pm-------29.81- 66.0 50.9----
2024-04-20 05:48 pm-------29.81- 65.8 50.9----
2024-04-20 05:42 pm-------29.81- 65.8 50.9----
2024-04-20 05:36 pm-------29.81- 65.7 50.9----
2024-04-20 05:30 pm-------29.81- 65.5 50.9----
2024-04-20 05:24 pm-------29.80- 65.5 50.9----
2024-04-20 05:18 pm-------29.80- 64.9 51.1----
2024-04-20 05:12 pm-------29.80- 63.0 51.1----
2024-04-20 05:06 pm-------29.81- 60.4 51.3----
2024-04-20 05:00 pm-------29.81-0.07 56.1 51.3----
2024-04-20 04:54 pm-------29.81- 56.5 51.3----
2024-04-20 04:48 pm-------29.81-- 51.4----
2024-04-20 04:42 pm-------29.81-- 51.4----
2024-04-20 04:36 pm-------29.81-- 51.4----
2024-04-20 04:30 pm-------29.81- 54.0 51.4----
2024-04-20 04:24 pm-------29.81- 54.5 51.4----
2024-04-20 04:18 pm--------- 54.9 51.4----
2024-04-20 04:12 pm--------- 54.1 51.3----
2024-04-20 04:06 pm--------- 54.5 51.1----
2024-04-20 04:00 pm-------29.82-0.09 54.7 51.1----
2024-04-20 03:54 pm-------29.82- 54.1 51.1----
2024-04-20 03:48 pm-------29.82- 53.8 51.3----
2024-04-20 03:42 pm-------29.83- 54.3 51.3----
2024-04-20 03:36 pm-------29.83- 53.6 51.4----
2024-04-20 03:30 pm-------29.83- 52.9 51.3----
2024-04-20 03:24 pm-------29.84- 52.9 51.3----
2024-04-20 03:18 pm-------29.84- 52.5 51.3----
2024-04-20 03:12 pm-------29.84- 52.7 51.3----
2024-04-20 03:06 pm-------29.84- 52.9 51.3----
2024-04-20 03:00 pm-------29.85-0.07------
2024-04-20 02:54 pm-------29.85-------
2024-04-20 02:48 pm-------29.85- 54.0 50.9----
2024-04-20 02:42 pm-------29.85- 56.5 50.9----
2024-04-20 02:36 pm-------29.85- 55.6 50.7----
2024-04-20 02:30 pm--------- 55.8 50.7----
2024-04-20 02:24 pm--------- 55.9 50.9----
2024-04-20 02:18 pm-------29.86- 55.8 50.9----
2024-04-20 02:12 pm-------29.87- 56.8 50.9----
2024-04-20 02:06 pm-------29.87- 57.0 50.9----
2024-04-20 02:00 pm-------29.88-0.05 55.9 50.9----
2024-04-20 01:54 pm-------29.88- 56.1 50.9----
2024-04-20 01:48 pm-------29.88- 58.3 50.9----
2024-04-20 01:42 pm-------29.88- 57.9 50.9----
2024-04-20 01:36 pm-------29.88- 57.2 50.9----
2024-04-20 01:30 pm-------29.88- 56.5 50.9----
2024-04-20 01:24 pm-------29.89- 55.9 50.9----
2024-04-20 01:18 pm-------29.89- 55.2 50.9----
2024-04-20 01:12 pm-------29.89- 54.3 50.9----
2024-04-20 01:06 pm-------29.90- 53.4 50.9----
2024-04-20 01:00 pm-------29.91-0.04 52.5 50.9----
2024-04-20 12:54 pm-------29.90- 51.8 50.9----
2024-04-20 12:48 pm-------29.91- 51.3 50.9----
2024-04-20 12:42 pm-------29.90- 51.1 50.9----
2024-04-20 12:36 pm-------29.91- 51.1 50.9----
2024-04-20 12:30 pm-------29.91- 50.9 50.9----
2024-04-20 12:24 pm-------29.91- 50.9 50.9----
2024-04-20 12:18 pm-------29.91- 51.1 50.7----
2024-04-20 12:12 pm-------29.91- 50.7 50.7----
2024-04-20 12:06 pm-------29.92- 51.3 50.7----
2024-04-20 12:00 pm-------29.92-0.03 51.8 50.7----
2024-04-20 11:54 am-------29.92- 51.6 50.7----
2024-04-20 11:48 am-------29.92- 51.3 50.7----
2024-04-20 11:42 am-------29.91- 50.9 50.7----
2024-04-20 11:36 am-------29.91- 50.5 50.7----
2024-04-20 11:30 am-------29.91- 50.5 50.7----
2024-04-20 11:24 am-------29.91- 50.5 50.7----
2024-04-20 11:18 am-------29.92- 50.5 50.7----
2024-04-20 11:12 am-------29.92- 50.4 50.7----
2024-04-20 11:06 am-------29.92- 50.5 50.7----
2024-04-20 11:00 am-------29.92-0.03 50.4 50.7----
2024-04-20 10:54 am-------29.93- 50.2 50.7----
2024-04-20 10:48 am-------29.93- 50.2 50.7----
2024-04-20 10:42 am-------29.93- 50.2 50.7----
2024-04-20 10:36 am-------29.93- 49.8 50.7----
2024-04-20 10:30 am-------29.93- 50.0 50.7----
2024-04-20 10:24 am-------29.93- 50.0 50.7----
2024-04-20 10:18 am-------29.93- 50.0 50.7----
2024-04-20 10:12 am-------29.92- 49.8 50.7----
2024-04-20 10:06 am-------29.93- 50.0 50.7----
2024-04-20 10:00 am-------29.94-0.01 50.0 50.7----
2024-04-20 09:54 am-------29.94- 49.6 50.7----
2024-04-20 09:48 am-------29.93-- 50.7----
2024-04-20 09:42 am-------29.93-- 50.7----
2024-04-20 09:36 am-------29.93-- 50.7----
2024-04-20 09:30 am-------29.94- 49.5 50.7----
2024-04-20 09:24 am-------29.94- 49.5 50.7----
2024-04-20 09:18 am-------29.94- 49.5 50.7----
2024-04-20 09:12 am-------29.94- 49.6 50.7----
2024-04-20 09:06 am-------29.94- 49.5 50.7----
2024-04-20 09:00 am-------29.95+0.01 49.5 50.7----
2024-04-20 08:54 am-------29.95- 49.6 50.7----
2024-04-20 08:48 am-------29.95- 49.5 50.7----
2024-04-20 08:42 am-------29.95- 49.5 50.7----
2024-04-20 08:36 am-------29.95- 49.5 50.7----
2024-04-20 08:30 am-------29.95- 49.3 50.7----
2024-04-20 08:24 am-------29.95- 49.5 50.7----
2024-04-20 08:18 am-------29.95- 49.5 50.7----
2024-04-20 08:12 am-------29.96- 49.3 50.5----
2024-04-20 08:06 am-------29.96- 49.3 50.5----
2024-04-20 08:00 am-------29.96+0.01 49.3 50.5----
2024-04-20 07:54 am-------29.95- 49.1 50.5----